Location: Domont
(49.0278°N, 2.3264°E)
Time: 01:04:39
(UTC+00:00)

ZACube-1 - Pass Details

Date: 08 July 2022
Orbit: 581 x 661 km, 97.6° (Epoch: 17 August)

Event Time Altitude Azimuth Distance (km) Brightness Sun altitude
Rises 02:39:03 0° 27° (NNE) 2,981 ? -9.8°
Reaches altitude 10° 02:41:53 10° 46° (NE) 2,074 ? -9.5°
Maximum altitude 02:45:03 18° 90° (E) 1,588 ? -9.2°
Drops below altitude 10° 02:48:13 10° 134° (SE) 2,077 ? -8.8°
Sets 02:51:03 0° 153° (SSE) 2,985 ? -8.5°
